User: anonymous   Login
Location: The Top Of The Sky Mini Observatory
(41.4300°N, 81.2300°W)
Time: 08:00:48
(UTC-04:00)
Language:

Iridium 86 - Orbit

View from above orbital plane
View from above orbital plane
View from above satellite
View from above satellite

Ground track
Ground track

The orbit data is extracted from the following two-line orbital elements,

1 25528U 98066B   14296.42388269  .00000482  00000-0  16488-3 0  1968
2 25528 086.3986 034.3953 0002070 114.0160 246.1252 14.34218359840658
Epoch (UTC): 23 October 2014 10:10:23
Eccentricity: 0.0002070
inclination: 86.3986°
perigee height: 776 km
apogee height: 779 km
right ascension of ascending node: 34.3953°
argument of perigee: 114.0160°
revolutions per day: 14.34218359
mean anomaly at epoch: 246.1252°
orbit number at epoch: 84065

The dashed part of the orbit path shows where the satellite is in the earth's shadow,  

DLR